sat.trackr.live / text

‹ back to catalog

STARLINK-30470

NORAD 57892 · 2023-146B

PAYLOAD ACTIVE UNKNOWN

§ Identity

Operator
Country
US
Launch date
2023-09-20
Launch site
AFETR
Launch vehicle
Mass (kg)
RCS (m²)

Purposes: comms

External: N2YO · Heavens-Above · Gunter

§ Orbital elements

Epoch: 2026-05-24T22:58:11.868384Z

Period
94.27 min
Inclination
42.9995°
Eccentricity
0.0001154
Mean motion
15.27577924 rev/d
Perigee alt
482.3 km
Apogee alt
483.8 km
Semi-major
6,861.2 km
B*
4.1181e-5
RAAN
243.2073°
Arg perigee
278.7652°
Mean anomaly
81.3069°
Rev number
14,872

§ Raw data

STARLINK-304701 57892U 23146B   26144.95708181  .00000871  00000+0  41181-4 0  99972 57892  42.9995 243.2073 0001154 278.7652  81.3069 15.27577924148728

JSON: /api/v1/satellites/57892 · /tle

For live sub-satellite position, see the globe view (requires WebGL).

§ Visibility from observer

Set your observer location to see the next 7 days of passes ≥ 10°. The values pass through the URL so the page stays shareable.

No JS? Fill the form by hand. The geolocation button needs JavaScript.